Regional Weather Roundup
Issued by NWS Albany, NY

Home | Current Version | Previous Version | Text Only | Print | Product List | Glossary Off
Versions: 1 2 3 4 5 6 7 8 9 10 11 12 13 14 15 16 17 18 19 20 21 22 23 24 25 26 27 28 29 30 31 32 33 34 35 36 37 38 39 40 41 42 43 44 45 46 47 48 49 50

000
ASUS41 KALY 031710
RWRALY

NEW YORK STATE HOURLY WEATHER ROUNDUP
NATIONAL WEATHER SERVICE ALBANY NY
100 PM EDT THU SEP 03 2015

NOTE: "FAIR" INDICATES FEW OR NO CLOUDS BELOW 12,000 FEET WITH NO
SIGNIFICANT WEATHER AND/OR NO OBSTRUCTIONS TO VISIBILITY.

NYZ032-033-038>043-046>054-057>066-NYZ062>081-031800-
EAST


CITY           SKY/WX    TMP DP  RH WIND       PRES   REMARKS
ALBANY         PTSUNNY   85  69  58 E5        29.88F
GLENS FALLS    SUNNY     84  69  60 CALM      29.88F
POUGHKEEPSIE   SUNNY     88  67  49 NE8       29.87F HX  91
NEWBURGH       SUNNY     86  70  58 VRB6      29.90  HX  90
MONTGOMERY     MOSUNNY   88  68  51 N7        29.89F HX  91
WHITE PLAINS   SUNNY     88  65  46 NW9       29.87F HX  90
ISLIP          MOSUNNY   88  65  46 N5        29.84F HX  90
NEW YORK CITY  MOSUNNY   88  65  46 VRB6      29.85F HX  90
CENTRAL PARK   SUNNY     90  63  40 VRB5      29.89F HX  91
$$

NYZ005>009-017-018-044>046-055-056-031800-
CENTRAL


CITY           SKY/WX    TMP DP  RH WIND       PRES   REMARKS
FULTON         PTSUNNY   81  73  76 NW3       29.94S
SYRACUSE       PTSUNNY   82  71  69 NW7       29.92S
ROME           CLOUDY    75  70  84 VRB5      29.95S
ELMIRA         MOSUNNY   85  70  60 SW6       29.93F
BINGHAMTON     PTSUNNY   80  70  71 NW5       29.97F
MONTICELLO     MOSUNNY   82  66  57 N14       29.95F
$$

NYZ026>034-041>043-031800-
NORTH


CITY           SKY/WX    TMP DP  RH WIND       PRES   REMARKS
WATERTOWN      PTSUNNY   81  70  69 NW6       29.93S HAZE
FORT DRUM      NOT AVBL
MASSENA        PTSUNNY   78  68  71 CALM      29.95S
SARANAC LAKE     N/A     78  63  59 N8        29.96F
PLATTSBURGH    MOSUNNY   79  70  74 NE12      29.92S
$$

NYZ001>004-010>016-019>021-031800-
WEST


CITY           SKY/WX    TMP DP  RH WIND       PRES   REMARKS
NIAGARA FALLS  MOSUNNY   85  70  60 VRB3      29.93F
BUFFALO        MOSUNNY   81  70  69 SW5       29.95F
DUNKIRK        MOSUNNY   81  72  74 NW6       29.96F
JAMESTOWN      MOSUNNY   79  68  69 CALM      30.01S
WELLSVILLE     MOSUNNY   83  66  56 N9        30.03F
ROCHESTER      PTSUNNY   85  70  60 NW7       29.94F
PENN YAN       MOSUNNY   83  69  62 NW6       29.96F
$$

             KEY
       WCI = WIND CHILL INDEX
       VSB = VISIBILITY
       HX  = HEAT INDEX
$$


USA.gov is the U.S. government's official web portal to all federal, state and local government web resources and services.